Time,TemperatureF,DewpointF,PressureIn,WindDirection,WindDirectionDegrees,WindSpeedMPH,WindSpeedGustMPH,Humidity,HourlyPrecipIn,Conditions,Clouds,dailyrainin,SoftwareType,DateUTC
2013-05-26 00:01:00,52.2,46.3,30.04,WSW,248,9.6,11.4,80,0.00,,,0.00,WUHU216HW,2013-05-26 07:01:00,
2013-05-26 00:06:00,52.2,46.3,30.04,SW,225,9.8,11.4,80,0.00,,,0.00,WUHU216HW,2013-05-26 07:06:00,
2013-05-26 00:11:00,52.2,46.3,30.04,SW,225,9.2,9.8,80,0.00,,,0.00,WUHU216HW,2013-05-26 07:11:00,
2013-05-26 00:16:00,52.2,46.3,30.04,WSW,248,10.5,10.5,80,0.00,,,0.00,WUHU216HW,2013-05-26 07:16:00,
2013-05-26 00:21:00,52.4,46.4,30.04,NW,315,5.1,10.5,80,0.00,,,0.00,WUHU216HW,2013-05-26 07:21:00,
2013-05-26 00:26:00,52.4,46.7,30.04,SW,225,8.7,10.5,81,0.00,,,0.00,WUHU216HW,2013-05-26 07:26:00,
2013-05-26 00:31:00,52.4,46.7,30.04,SW,225,5.1,8.7,81,0.00,,,0.00,WUHU216HW,2013-05-26 07:31:00,
2013-05-26 00:36:00,52.6,46.9,30.04,WSW,248,9.8,9.8,81,0.00,,,0.00,WUHU216HW,2013-05-26 07:36:00,
2013-05-26 00:41:00,52.6,47.3,30.04,SW,225,7.6,12.5,82,0.00,,,0.00,WUHU216HW,2013-05-26 07:41:00,
2013-05-26 00:46:00,52.7,47.1,30.04,SSW,203,11.2,12.5,81,0.00,,,0.00,WUHU216HW,2013-05-26 07:46:00,
2013-05-26 00:51:00,52.7,47.1,30.04,WSW,248,6.9,11.2,81,0.00,,,0.00,WUHU216HW,2013-05-26 07:51:00,
2013-05-26 00:56:00,52.9,47.3,30.04,WSW,248,6.7,11.2,81,0.00,,,0.00,WUHU216HW,2013-05-26 07:56:00,
2013-05-26 01:01:00,52.9,47.3,30.04,WSW,248,4.9,6.9,81,0.00,,,0.00,WUHU216HW,2013-05-26 08:01:00,
2013-05-26 01:06:00,52.9,47.3,30.04,SW,225,8.7,8.7,81,0.00,,,0.00,WUHU216HW,2013-05-26 08:06:00,
2013-05-26 01:11:00,52.9,47.3,30.04,SW,225,8.7,8.7,81,0.00,,,0.00,WUHU216HW,2013-05-26 08:11:00,
2013-05-26 01:16:00,52.9,47.3,30.04,WSW,248,8.9,8.9,81,0.00,,,0.00,WUHU216HW,2013-05-26 08:16:00,
2013-05-26 01:21:00,52.7,47.1,30.04,SSW,203,4.9,8.9,81,0.00,,,0.00,WUHU216HW,2013-05-26 08:21:00,
2013-05-26 01:26:00,52.6,46.9,30.04,SSW,203,11.9,11.9,81,0.00,,,0.00,WUHU216HW,2013-05-26 08:26:00,
2013-05-26 01:31:00,52.6,47.3,30.04,SW,225,13.6,13.6,82,0.00,,,0.00,WUHU216HW,2013-05-26 08:31:00,
2013-05-26 01:36:00,52.4,47.1,30.04,WSW,248,11.2,13.6,82,0.00,,,0.00,WUHU216HW,2013-05-26 08:36:00,
2013-05-26 01:41:00,52.4,47.1,30.04,North,0,0.0,13.6,82,0.00,,,0.00,WUHU216HW,2013-05-26 08:41:00,
2013-05-26 01:46:00,52.4,47.1,30.04,North,0,0.0,0.0,82,0.00,,,0.00,WUHU216HW,2013-05-26 08:46:00,
2013-05-26 01:51:00,52.4,47.1,30.04,North,0,0.0,0.0,82,0.00,,,0.00,WUHU216HW,2013-05-26 08:51:00,
2013-05-26 01:56:00,52.4,47.1,30.04,North,0,0.0,0.0,82,0.00,,,0.00,WUHU216HW,2013-05-26 08:56:00,
2013-05-26 02:01:00,52.2,46.9,30.04,North,0,0.0,0.0,82,0.00,,,0.00,WUHU216HW,2013-05-26 09:01:00,
2013-05-26 02:06:00,52.2,46.9,30.04,North,0,0.0,0.0,82,0.00,,,0.00,WUHU216HW,2013-05-26 09:06:00,
2013-05-26 02:11:00,52.2,47.2,30.04,North,0,0.0,0.0,83,0.00,,,0.00,WUHU216HW,2013-05-26 09:11:00,
2013-05-26 02:16:00,52.2,47.2,30.04,North,0,0.0,0.0,83,0.00,,,0.00,WUHU216HW,2013-05-26 09:16:00,
2013-05-26 02:21:00,52.2,47.5,30.04,North,0,0.0,0.0,84,0.00,,,0.00,WUHU216HW,2013-05-26 09:21:00,
2013-05-26 02:26:00,52.2,47.5,30.04,North,0,0.0,0.0,84,0.00,,,0.00,WUHU216HW,2013-05-26 09:26:00,
2013-05-26 02:31:00,52.2,47.2,30.04,North,0,0.0,0.0,83,0.00,,,0.00,WUHU216HW,2013-05-26 09:31:00,
2013-05-26 02:36:00,52.2,47.2,30.04,North,0,0.0,0.0,83,0.00,,,0.00,WUHU216HW,2013-05-26 09:36:00,
2013-05-26 02:41:00,52.2,47.2,30.04,North,0,0.0,0.0,83,0.00,,,0.00,WUHU216HW,2013-05-26 09:41:00,
2013-05-26 02:46:00,52.2,47.2,30.04,North,0,0.0,0.0,83,0.00,,,0.00,WUHU216HW,2013-05-26 09:46:00,
2013-05-26 02:51:00,52.4,47.3,30.04,North,0,0.0,0.0,83,0.00,,,0.00,WUHU216HW,2013-05-26 09:51:00,
2013-05-26 02:56:00,52.6,47.5,30.04,SW,225,9.6,9.6,83,0.00,,,0.00,WUHU216HW,2013-05-26 09:56:00,
2013-05-26 03:01:00,52.7,47.7,30.04,SW,225,5.8,9.6,83,0.00,,,0.00,WUHU216HW,2013-05-26 10:01:00,
2013-05-26 03:06:00,52.9,47.9,30.04,West,270,7.4,9.6,83,0.00,,,0.00,WUHU216HW,2013-05-26 10:06:00,
2013-05-26 03:11:00,52.9,48.3,30.04,SW,225,7.6,7.6,84,0.00,,,0.00,WUHU216HW,2013-05-26 10:11:00,
2013-05-26 03:16:00,53.3,48.0,30.04,WSW,248,4.7,8.7,82,0.00,,,0.00,WUHU216HW,2013-05-26 10:16:00,
2013-05-26 03:21:00,53.3,48.2,30.04,WSW,248,8.5,8.7,83,0.00,,,0.00,WUHU216HW,2013-05-26 10:21:00,
2013-05-26 03:26:00,53.3,48.0,30.04,WSW,248,8.5,8.5,82,0.00,,,0.00,WUHU216HW,2013-05-26 10:26:00,
2013-05-26 03:31:00,53.5,48.2,30.04,South,180,3.6,8.5,82,0.00,,,0.00,WUHU216HW,2013-05-26 10:31:00,
2013-05-26 03:36:00,53.6,48.3,30.04,SW,225,8.9,8.9,82,0.00,,,0.00,WUHU216HW,2013-05-26 10:36:00,
2013-05-26 03:41:00,53.6,48.3,30.04,SW,225,3.6,8.9,82,0.00,,,0.00,WUHU216HW,2013-05-26 10:41:00,
2013-05-26 03:46:00,53.6,48.3,30.04,SSE,158,4.0,10.1,82,0.00,,,0.00,WUHU216HW,2013-05-26 10:46:00,
2013-05-26 03:51:00,53.6,48.3,30.04,West,270,2.0,10.1,82,0.00,,,0.00,WUHU216HW,2013-05-26 10:51:00,
2013-05-26 03:56:00,53.8,48.5,30.04,SSW,203,7.4,7.4,82,0.00,,,0.00,WUHU216HW,2013-05-26 10:56:00,
2013-05-26 04:01:00,53.6,48.6,30.04,SW,225,6.9,7.4,83,0.00,,,0.00,WUHU216HW,2013-05-26 11:01:00,
2013-05-26 04:05:00,53.8,48.5,30.04,North,0,0.0,7.4,82,0.00,,,0.00,WUHU216HW,2013-05-26 11:05:00,
2013-05-26 04:10:00,53.8,48.5,30.04,North,0,0.0,6.9,82,0.00,,,0.00,WUHU216HW,2013-05-26 11:10:00,
2013-05-26 04:15:00,53.8,48.5,30.04,North,0,0.0,0.0,82,0.00,,,0.00,WUHU216HW,2013-05-26 11:15:00,
2013-05-26 04:20:00,54.0,48.6,30.05,North,0,0.0,0.0,82,0.00,,,0.00,WUHU216HW,2013-05-26 11:20:00,
2013-05-26 04:25:00,54.2,48.8,30.05,North,0,0.0,0.0,82,0.00,,,0.00,WUHU216HW,2013-05-26 11:25:00,
2013-05-26 04:30:00,54.2,48.8,30.04,North,0,0.0,0.0,82,0.00,,,0.00,WUHU216HW,2013-05-26 11:30:00,
2013-05-26 04:35:00,54.2,49.2,30.05,North,0,0.0,0.0,83,0.00,,,0.00,WUHU216HW,2013-05-26 11:35:00,
2013-05-26 04:40:00,54.2,48.8,30.04,North,0,0.0,0.0,82,0.00,,,0.00,WUHU216HW,2013-05-26 11:40:00,
2013-05-26 04:45:00,54.4,49.0,30.04,North,0,0.0,0.0,82,0.00,,,0.00,WUHU216HW,2013-05-26 11:45:00,
2013-05-26 04:50:00,54.4,49.0,30.05,North,0,0.0,0.0,82,0.00,,,0.00,WUHU216HW,2013-05-26 11:50:00,
2013-05-26 04:55:00,54.4,49.0,30.04,North,0,0.0,0.0,82,0.00,,,0.00,WUHU216HW,2013-05-26 11:55:00,
2013-05-26 05:00:00,54.4,49.0,30.04,North,0,0.0,0.0,82,0.00,,,0.00,WUHU216HW,2013-05-26 12:00:00,
2013-05-26 05:05:00,54.5,49.4,30.04,North,0,0.0,0.0,83,0.00,,,0.00,WUHU216HW,2013-05-26 12:05:00,
2013-05-26 05:10:00,54.5,49.8,30.04,North,0,0.0,0.0,84,0.00,,,0.00,WUHU216HW,2013-05-26 12:10:00,
2013-05-26 05:15:00,54.5,49.4,30.04,North,0,0.0,0.0,83,0.00,,,0.00,WUHU216HW,2013-05-26 12:15:00,
2013-05-26 05:20:00,54.7,49.3,30.04,North,0,0.0,0.0,82,0.00,,,0.00,WUHU216HW,2013-05-26 12:20:00,
2013-05-26 05:25:00,54.7,49.6,30.04,North,0,0.0,0.0,83,0.00,,,0.00,WUHU216HW,2013-05-26 12:25:00,
2013-05-26 05:30:00,54.7,49.6,30.04,North,0,0.0,0.0,83,0.00,,,0.00,WUHU216HW,2013-05-26 12:30:00,
2013-05-26 05:35:00,54.7,49.6,30.04,North,0,0.0,0.0,83,0.00,,,0.00,WUHU216HW,2013-05-26 12:35:00,
2013-05-26 05:40:00,54.7,49.6,30.04,North,0,0.0,0.0,83,0.00,,,0.00,WUHU216HW,2013-05-26 12:40:00,
2013-05-26 05:45:00,54.5,49.4,30.04,North,0,0.0,0.0,83,0.00,,,0.00,WUHU216HW,2013-05-26 12:45:00,
2013-05-26 05:50:00,54.5,49.4,30.05,North,0,0.0,0.0,83,0.00,,,0.00,WUHU216HW,2013-05-26 12:50:00,
2013-05-26 05:55:00,54.5,49.4,30.05,North,0,0.0,0.0,83,0.00,,,0.00,WUHU216HW,2013-05-26 12:55:00,
2013-05-26 06:00:00,54.5,49.1,30.05,North,0,0.0,0.0,82,0.00,,,0.00,WUHU216HW,2013-05-26 13:00:00,
2013-05-26 06:05:00,54.5,49.4,30.05,North,0,0.0,0.0,83,0.00,,,0.00,WUHU216HW,2013-05-26 13:05:00,
2013-05-26 06:10:00,54.5,49.4,30.05,North,0,0.0,0.0,83,0.00,,,0.00,WUHU216HW,2013-05-26 13:10:00,
2013-05-26 06:15:00,54.5,49.4,30.05,North,0,0.0,0.0,83,0.00,,,0.00,WUHU216HW,2013-05-26 13:15:00,
2013-05-26 06:20:00,54.5,49.8,30.05,North,0,0.0,0.0,84,0.00,,,0.00,WUHU216HW,2013-05-26 13:20:00,
2013-05-26 06:25:00,54.5,49.8,30.05,North,0,0.0,0.0,84,0.00,,,0.00,WUHU216HW,2013-05-26 13:25:00,
2013-05-26 06:30:00,54.4,49.6,30.05,North,0,0.0,0.0,84,0.00,,,0.00,WUHU216HW,2013-05-26 13:30:00,
2013-05-26 06:35:00,54.5,49.8,30.05,North,0,0.0,0.0,84,0.00,,,0.00,WUHU216HW,2013-05-26 13:35:00,
2013-05-26 06:40:00,54.5,49.8,30.05,North,0,0.0,0.0,84,0.00,,,0.00,WUHU216HW,2013-05-26 13:40:00,
2013-05-26 06:45:00,54.5,49.8,30.05,North,0,0.0,0.0,84,0.00,,,0.00,WUHU216HW,2013-05-26 13:45:00,
2013-05-26 06:50:00,54.7,50.0,30.06,North,0,0.0,0.0,84,0.00,,,0.00,WUHU216HW,2013-05-26 13:50:00,
2013-05-26 06:55:00,54.5,49.8,30.06,North,0,0.0,0.0,84,0.00,,,0.00,WUHU216HW,2013-05-26 13:55:00,
2013-05-26 07:00:00,54.5,49.8,30.06,North,0,0.0,0.0,84,0.00,,,0.00,WUHU216HW,2013-05-26 14:00:00,
2013-05-26 07:05:00,54.7,50.0,30.06,North,0,0.0,0.0,84,0.00,,,0.00,WUHU216HW,2013-05-26 14:05:00,
2013-05-26 07:10:00,54.7,50.0,30.07,North,0,0.0,0.0,84,0.00,,,0.00,WUHU216HW,2013-05-26 14:10:00,
2013-05-26 07:15:00,54.7,49.6,30.07,North,0,0.0,0.0,83,0.00,,,0.00,WUHU216HW,2013-05-26 14:15:00,
2013-05-26 07:20:00,54.7,49.6,30.07,North,0,0.0,0.0,83,0.00,,,0.00,WUHU216HW,2013-05-26 14:20:00,
2013-05-26 07:25:00,54.7,50.0,30.07,North,0,0.0,0.0,84,0.00,,,0.00,WUHU216HW,2013-05-26 14:25:00,
2013-05-26 07:30:00,54.7,49.6,30.07,North,0,0.0,0.0,83,0.00,,,0.00,WUHU216HW,2013-05-26 14:30:00,
2013-05-26 07:35:00,54.9,49.8,30.07,North,0,0.0,0.0,83,0.00,,,0.00,WUHU216HW,2013-05-26 14:35:00,
2013-05-26 07:40:00,54.9,49.8,30.07,North,0,0.0,0.0,83,0.00,,,0.00,WUHU216HW,2013-05-26 14:40:00,
2013-05-26 07:45:00,55.1,50.0,30.07,North,0,0.0,0.0,83,0.00,,,0.00,WUHU216HW,2013-05-26 14:45:00,
2013-05-26 07:50:00,55.3,50.1,30.07,North,0,0.0,0.0,83,0.00,,,0.00,WUHU216HW,2013-05-26 14:50:00,
2013-05-26 07:55:00,55.3,50.1,30.08,North,0,0.0,0.0,83,0.00,,,0.00,WUHU216HW,2013-05-26 14:55:00,
2013-05-26 08:00:00,55.6,50.1,30.08,North,0,0.0,0.0,82,0.00,,,0.00,WUHU216HW,2013-05-26 15:00:00,
2013-05-26 08:05:00,55.8,50.3,30.07,North,0,0.0,0.0,82,0.00,,,0.00,WUHU216HW,2013-05-26 15:05:00,
2013-05-26 08:10:00,55.8,50.3,30.08,North,0,0.0,0.0,82,0.00,,,0.00,WUHU216HW,2013-05-26 15:10:00,
2013-05-26 08:15:00,55.8,50.3,30.08,North,0,0.0,0.0,82,0.00,,,0.00,WUHU216HW,2013-05-26 15:15:00,
2013-05-26 08:20:00,55.8,50.3,30.08,North,0,0.0,0.0,82,0.00,,,0.00,WUHU216HW,2013-05-26 15:20:00,
2013-05-26 08:25:00,55.8,50.3,30.08,North,0,0.0,0.0,82,0.00,,,0.00,WUHU216HW,2013-05-26 15:25:00,
2013-05-26 08:30:00,56.0,50.5,30.08,North,0,0.0,0.0,82,0.00,,,0.00,WUHU216HW,2013-05-26 15:30:00,
2013-05-26 08:35:00,56.2,50.7,30.08,North,0,0.0,0.0,82,0.00,,,0.00,WUHU216HW,2013-05-26 15:35:00,
2013-05-26 08:40:00,57.4,51.9,30.08,North,0,0.0,0.0,82,0.00,,,0.00,WUHU216HW,2013-05-26 15:40:00,
2013-05-26 08:45:00,58.0,52.2,30.08,North,0,0.0,0.0,81,0.00,,,0.00,WUHU216HW,2013-05-26 15:45:00,
2013-05-26 08:50:00,58.7,52.6,30.09,North,0,0.0,0.0,80,0.00,,,0.00,WUHU216HW,2013-05-26 15:50:00,
2013-05-26 08:55:00,59.9,53.1,30.09,North,0,0.0,0.0,78,0.00,,,0.00,WUHU216HW,2013-05-26 15:55:00,
2013-05-26 09:00:00,60.5,52.9,30.09,North,0,0.0,0.0,76,0.00,,,0.00,WUHU216HW,2013-05-26 16:00:00,
2013-05-26 09:05:00,60.7,52.7,30.09,North,0,0.0,0.0,75,0.00,,,0.00,WUHU216HW,2013-05-26 16:05:00,
2013-05-26 09:10:00,60.7,52.4,30.09,North,0,0.0,0.0,74,0.00,,,0.00,WUHU216HW,2013-05-26 16:10:00,
2013-05-26 09:15:00,60.7,52.0,30.09,SW,225,9.8,9.8,73,0.00,,,0.00,WUHU216HW,2013-05-26 16:15:00,
2013-05-26 09:20:00,60.8,52.2,30.09,WNW,293,6.3,9.8,73,0.00,,,0.00,WUHU216HW,2013-05-26 16:20:00,
2013-05-26 09:25:00,60.8,52.2,30.09,SW,225,9.8,9.8,73,0.00,,,0.00,WUHU216HW,2013-05-26 16:25:00,
2013-05-26 09:30:00,61.7,52.7,30.09,SW,225,10.5,10.5,72,0.00,,,0.00,WUHU216HW,2013-05-26 16:30:00,
2013-05-26 09:35:00,62.3,52.7,30.09,SSE,158,8.7,10.5,71,0.00,,,0.00,WUHU216HW,2013-05-26 16:35:00,
2013-05-26 09:40:00,61.9,52.1,30.09,SW,225,9.2,13.0,70,0.00,,,0.00,WUHU216HW,2013-05-26 16:40:00,
2013-05-26 09:45:00,62.3,52.7,30.09,South,180,8.7,13.0,71,0.00,,,0.00,WUHU216HW,2013-05-26 16:45:00,
2013-05-26 09:50:00,62.5,52.6,30.09,West,270,10.7,10.7,70,0.00,,,0.00,WUHU216HW,2013-05-26 16:50:00,
2013-05-26 09:55:00,62.8,52.9,30.09,SW,225,8.1,10.7,70,0.00,,,0.00,WUHU216HW,2013-05-26 16:55:00,
2013-05-26 10:00:00,63.0,52.7,30.09,WSW,248,7.4,10.1,69,0.00,,,0.00,WUHU216HW,2013-05-26 17:00:00,
2013-05-26 10:05:00,63.2,52.8,30.09,SW,225,7.4,9.8,69,0.00,,,0.00,WUHU216HW,2013-05-26 17:05:00,
2013-05-26 10:10:00,63.4,52.7,30.09,SW,225,7.4,9.8,68,0.00,,,0.00,WUHU216HW,2013-05-26 17:10:00,
2013-05-26 10:15:00,63.2,52.5,30.09,WSW,248,12.1,12.1,68,0.00,,,0.00,WUHU216HW,2013-05-26 17:15:00,
2013-05-26 10:20:00,63.2,52.5,30.09,WSW,248,9.8,13.4,68,0.00,,,0.00,WUHU216HW,2013-05-26 17:20:00,
2013-05-26 10:25:00,63.5,52.4,30.09,WSW,248,14.3,14.3,67,0.00,,,0.00,WUHU216HW,2013-05-26 17:25:00,
2013-05-26 10:30:00,63.7,52.6,30.09,SSE,158,10.5,14.3,67,0.00,,,0.00,WUHU216HW,2013-05-26 17:30:00,
2013-05-26 10:35:00,63.7,51.7,30.09,WNW,293,7.4,14.3,65,0.00,,,0.00,WUHU216HW,2013-05-26 17:35:00,
2013-05-26 10:40:00,63.9,51.8,30.09,West,270,6.3,12.5,65,0.00,,,0.00,WUHU216HW,2013-05-26 17:40:00,
2013-05-26 10:45:00,64.3,52.2,30.08,South,180,9.2,9.2,65,0.00,,,0.00,WUHU216HW,2013-05-26 17:45:00,
2013-05-26 10:50:00,64.6,52.6,30.08,WSW,248,4.0,9.2,65,0.00,,,0.00,WUHU216HW,2013-05-26 17:50:00,
2013-05-26 10:55:00,65.2,52.7,30.09,SW,225,11.4,11.4,64,0.00,,,0.00,WUHU216HW,2013-05-26 17:55:00,
2013-05-26 11:00:00,65.5,52.6,30.08,SSW,203,4.7,11.4,63,0.00,,,0.00,WUHU216HW,2013-05-26 18:00:00,
2013-05-26 11:05:00,65.7,52.8,30.08,SW,225,7.6,11.4,63,0.00,,,0.00,WUHU216HW,2013-05-26 18:05:00,
2013-05-26 11:10:00,66.1,52.7,30.08,WSW,248,11.6,11.6,62,0.00,,,0.00,WUHU216HW,2013-05-26 18:10:00,
2013-05-26 11:15:00,66.4,52.6,30.08,SW,225,4.7,11.6,61,0.00,,,0.00,WUHU216HW,2013-05-26 18:15:00,
2013-05-26 11:20:00,66.8,52.9,30.08,SW,225,6.7,11.6,61,0.00,,,0.00,WUHU216HW,2013-05-26 18:20:00,
2013-05-26 11:25:00,67.3,53.0,30.08,West,270,4.0,10.7,60,0.00,,,0.00,WUHU216HW,2013-05-26 18:25:00,
2013-05-26 11:30:00,67.7,53.3,30.09,SW,225,6.0,10.7,60,0.00,,,0.00,WUHU216HW,2013-05-26 18:30:00,
2013-05-26 11:35:00,68.0,53.2,30.09,SSE,158,10.7,10.7,59,0.00,,,0.00,WUHU216HW,2013-05-26 18:35:00,
2013-05-26 11:40:00,68.2,52.8,30.09,SSE,158,10.7,10.7,58,0.00,,,0.00,WUHU216HW,2013-05-26 18:40:00,
2013-05-26 11:45:00,68.0,52.7,30.09,WSW,248,4.3,14.5,58,0.00,,,0.00,WUHU216HW,2013-05-26 18:45:00,
2013-05-26 11:50:00,68.2,52.8,30.09,West,270,2.5,14.5,58,0.00,,,0.00,WUHU216HW,2013-05-26 18:50:00,
2013-05-26 11:55:00,68.6,52.8,30.09,West,270,4.7,4.7,57,0.00,,,0.00,WUHU216HW,2013-05-26 18:55:00,
2013-05-26 12:00:00,69.1,53.2,30.08,SSW,203,6.9,6.9,57,0.00,,,0.00,WUHU216HW,2013-05-26 19:00:00,
2013-05-26 12:05:00,68.9,52.6,30.09,SW,225,10.5,10.5,56,0.00,,,0.00,WUHU216HW,2013-05-26 19:05:00,
2013-05-26 12:10:00,68.9,52.0,30.08,WSW,248,12.8,12.8,55,0.00,,,0.00,WUHU216HW,2013-05-26 19:10:00,
2013-05-26 12:15:00,69.1,52.8,30.08,SW,225,7.6,12.8,56,0.00,,,0.00,WUHU216HW,2013-05-26 19:15:00,
2013-05-26 12:20:00,69.8,52.4,30.08,WSW,248,14.1,14.1,54,0.00,,,0.00,WUHU216HW,2013-05-26 19:20:00,
2013-05-26 12:25:00,70.2,52.7,30.08,WNW,293,6.5,14.1,54,0.00,,,0.00,WUHU216HW,2013-05-26 19:25:00,
2013-05-26 12:30:00,70.2,52.7,30.08,WNW,293,2.5,14.1,54,0.00,,,0.00,WUHU216HW,2013-05-26 19:30:00,
2013-05-26 12:35:00,70.2,52.7,30.08,West,270,6.9,6.9,54,0.00,,,0.00,WUHU216HW,2013-05-26 19:35:00,
2013-05-26 12:40:00,70.2,52.7,30.08,WSW,248,8.7,8.7,54,0.00,,,0.00,WUHU216HW,2013-05-26 19:40:00,
2013-05-26 12:45:00,70.2,52.7,30.08,SSW,203,2.9,8.7,54,0.00,,,0.00,WUHU216HW,2013-05-26 19:45:00,
2013-05-26 12:50:00,70.7,53.2,30.08,WSW,248,8.9,8.9,54,0.00,,,0.00,WUHU216HW,2013-05-26 19:50:00,
2013-05-26 12:55:00,71.5,53.4,30.08,West,270,3.4,8.9,53,0.00,,,0.00,WUHU216HW,2013-05-26 19:55:00,
2013-05-26 13:00:00,71.6,52.6,30.08,WSW,248,8.9,8.9,51,0.00,,,0.00,WUHU216HW,2013-05-26 20:00:00,
2013-05-26 13:05:00,71.8,53.2,30.07,SW,225,4.0,8.9,52,0.00,,,0.00,WUHU216HW,2013-05-26 20:05:00,
2013-05-26 13:10:00,72.4,52.7,30.07,SW,225,4.0,8.9,50,0.00,,,0.00,WUHU216HW,2013-05-26 20:10:00,
2013-05-26 13:15:00,72.5,52.8,30.07,West,270,6.0,6.0,50,0.00,,,0.00,WUHU216HW,2013-05-26 20:15:00,
2013-05-26 13:20:00,72.9,53.2,30.07,WSW,248,7.6,7.6,50,0.00,,,0.00,WUHU216HW,2013-05-26 20:20:00,
2013-05-26 13:25:00,72.7,51.2,30.07,SW,225,4.9,7.6,47,0.00,,,0.00,WUHU216HW,2013-05-26 20:25:00,
2013-05-26 13:30:00,72.4,50.9,30.07,SW,225,3.8,7.6,47,0.00,,,0.00,WUHU216HW,2013-05-26 20:30:00,
2013-05-26 13:35:00,72.4,50.3,30.07,West,270,6.0,6.0,46,0.00,,,0.00,WUHU216HW,2013-05-26 20:35:00,
2013-05-26 13:40:00,72.4,51.5,30.07,SW,225,7.6,7.6,48,0.00,,,0.00,WUHU216HW,2013-05-26 20:40:00,
2013-05-26 13:45:00,72.5,50.5,30.07,WSW,248,8.7,8.7,46,0.00,,,0.00,WUHU216HW,2013-05-26 20:45:00,
2013-05-26 13:50:00,72.4,49.7,30.07,WNW,293,6.0,8.7,45,0.00,,,0.00,WUHU216HW,2013-05-26 20:50:00,
2013-05-26 13:55:00,72.4,49.2,30.07,WNW,293,13.9,13.9,44,0.00,,,0.00,WUHU216HW,2013-05-26 20:55:00,
2013-05-26 14:00:00,72.0,48.8,30.06,WNW,293,8.5,13.9,44,0.00,,,0.00,WUHU216HW,2013-05-26 21:00:00,
2013-05-26 14:05:00,72.2,49.5,30.06,West,270,8.1,13.9,45,0.00,,,0.00,WUHU216HW,2013-05-26 21:05:00,
2013-05-26 14:10:00,72.2,50.1,30.06,SW,225,7.6,8.5,46,0.00,,,0.00,WUHU216HW,2013-05-26 21:10:00,
2013-05-26 14:14:00,72.5,49.2,30.06,WNW,293,11.2,11.2,44,0.00,,,0.00,WUHU216HW,2013-05-26 21:14:00,
2013-05-26 14:19:00,72.5,49.2,30.06,West,270,7.8,11.2,44,0.00,,,0.00,WUHU216HW,2013-05-26 21:19:00,
2013-05-26 14:24:00,72.7,49.4,30.06,West,270,13.9,13.9,44,0.00,,,0.00,WUHU216HW,2013-05-26 21:24:00,
2013-05-26 14:29:00,72.4,49.7,30.06,SW,225,6.3,13.9,45,0.00,,,0.00,WUHU216HW,2013-05-26 21:29:00,
2013-05-26 14:34:00,72.5,49.2,30.06,NW,315,5.8,13.9,44,0.00,,,0.00,WUHU216HW,2013-05-26 21:34:00,
2013-05-26 14:39:00,72.4,49.7,30.06,WSW,248,5.4,9.2,45,0.00,,,0.00,WUHU216HW,2013-05-26 21:39:00,
2013-05-26 14:44:00,72.7,50.1,30.06,WNW,293,6.3,9.2,45,0.00,,,0.00,WUHU216HW,2013-05-26 21:44:00,
2013-05-26 14:49:00,73.1,49.8,30.06,NW,315,6.9,6.9,44,0.00,,,0.00,WUHU216HW,2013-05-26 21:49:00,
2013-05-26 14:54:00,72.7,49.4,30.06,WNW,293,12.1,12.1,44,0.00,,,0.00,WUHU216HW,2013-05-26 21:54:00,
2013-05-26 14:59:00,72.7,49.4,30.06,WSW,248,12.8,12.8,44,0.00,,,0.00,WUHU216HW,2013-05-26 21:59:00,
2013-05-26 15:04:00,72.7,49.4,30.06,SSW,203,5.4,12.8,44,0.00,,,0.00,WUHU216HW,2013-05-26 22:04:00,
2013-05-26 15:09:00,72.7,49.4,30.06,WSW,248,6.5,12.8,44,0.00,,,0.00,WUHU216HW,2013-05-26 22:09:00,
2013-05-26 15:14:00,72.7,49.4,30.07,WSW,248,6.9,8.3,44,0.00,,,0.00,WUHU216HW,2013-05-26 22:14:00,
2013-05-26 15:19:00,72.7,49.4,30.07,West,270,13.0,13.0,44,0.00,,,0.00,WUHU216HW,2013-05-26 22:19:00,
2013-05-26 15:24:00,72.4,49.7,30.07,NW,315,6.3,13.0,45,0.00,,,0.00,WUHU216HW,2013-05-26 22:24:00,
2013-05-26 15:29:00,72.4,49.7,30.07,West,270,6.5,13.0,45,0.00,,,0.00,WUHU216HW,2013-05-26 22:29:00,
2013-05-26 15:34:00,72.7,50.1,30.07,WSW,248,3.8,7.4,45,0.00,,,0.00,WUHU216HW,2013-05-26 22:34:00,
2013-05-26 15:39:00,73.1,50.3,30.07,NW,315,10.3,10.3,45,0.00,,,0.00,WUHU216HW,2013-05-26 22:39:00,
2013-05-26 15:44:00,72.9,50.2,30.07,WSW,248,2.5,10.3,45,0.00,,,0.00,WUHU216HW,2013-05-26 22:44:00,
2013-05-26 15:49:00,73.1,50.3,30.07,WSW,248,4.5,10.3,45,0.00,,,0.00,WUHU216HW,2013-05-26 22:49:00,
2013-05-26 15:54:00,72.5,49.9,30.07,WNW,293,6.9,7.4,45,0.00,,,0.00,WUHU216HW,2013-05-26 22:54:00,
2013-05-26 15:59:00,72.5,49.9,30.07,North,0,0.0,6.9,45,0.00,,,0.00,WUHU216HW,2013-05-26 22:59:00,
2013-05-26 16:04:00,72.4,49.7,30.07,SW,225,6.7,11.2,45,0.00,,,0.00,WUHU216HW,2013-05-26 23:04:00,
2013-05-26 16:09:00,72.5,49.9,30.07,WSW,248,7.2,11.2,45,0.00,,,0.00,WUHU216HW,2013-05-26 23:09:00,
2013-05-26 16:14:00,72.9,50.2,30.06,WNW,293,8.1,8.1,45,0.00,,,0.00,WUHU216HW,2013-05-26 23:14:00,
2013-05-26 16:19:00,72.7,50.1,30.06,SW,225,5.6,8.1,45,0.00,,,0.00,WUHU216HW,2013-05-26 23:19:00,
2013-05-26 16:24:00,72.5,49.9,30.06,West,270,6.7,10.5,45,0.00,,,0.00,WUHU216HW,2013-05-26 23:24:00,
2013-05-26 16:29:00,72.4,49.7,30.06,WNW,293,9.4,10.5,45,0.00,,,0.00,WUHU216HW,2013-05-26 23:29:00,
2013-05-26 16:34:00,72.0,50.0,30.06,West,270,7.6,10.5,46,0.00,,,0.00,WUHU216HW,2013-05-26 23:34:00,
2013-05-26 16:39:00,71.8,49.2,30.06,North,0,0.0,10.5,45,0.00,,,0.00,WUHU216HW,2013-05-26 23:39:00,
2013-05-26 16:44:00,71.6,49.7,30.06,North,0,0.0,7.6,46,0.00,,,0.00,WUHU216HW,2013-05-26 23:44:00,
2013-05-26 16:49:00,71.8,49.8,30.06,North,0,0.0,0.0,46,0.00,,,0.00,WUHU216HW,2013-05-26 23:49:00,
2013-05-26 16:54:00,71.5,49.5,30.06,North,0,0.0,0.0,46,0.00,,,0.00,WUHU216HW,2013-05-26 23:54:00,
2013-05-26 16:59:00,71.1,49.8,30.06,North,0,0.0,0.0,47,0.00,,,0.00,WUHU216HW,2013-05-26 23:59:00,
2013-05-26 17:04:00,71.1,49.8,30.06,North,0,0.0,0.0,47,0.00,,,0.00,WUHU216HW,2013-05-27 00:04:00,
2013-05-26 17:09:00,71.1,49.8,30.06,North,0,0.0,0.0,47,0.00,,,0.00,WUHU216HW,2013-05-27 00:09:00,
2013-05-26 17:14:00,70.9,49.6,30.06,North,0,0.0,0.0,47,0.00,,,0.00,WUHU216HW,2013-05-27 00:14:00,
2013-05-26 17:19:00,70.9,49.6,30.06,North,0,0.0,0.0,47,0.00,,,0.00,WUHU216HW,2013-05-27 00:19:00,
2013-05-26 17:24:00,70.6,49.2,30.06,North,0,0.0,0.0,47,0.00,,,0.00,WUHU216HW,2013-05-27 00:24:00,
2013-05-26 17:29:00,70.0,49.4,30.06,North,0,0.0,0.0,48,0.00,,,0.00,WUHU216HW,2013-05-27 00:29:00,
2013-05-26 17:34:00,70.2,49.0,30.06,North,0,0.0,0.0,47,0.00,,,0.00,WUHU216HW,2013-05-27 00:34:00,
2013-05-26 17:39:00,69.8,48.6,30.06,North,0,0.0,0.0,47,0.00,,,0.00,WUHU216HW,2013-05-27 00:39:00,
2013-05-26 17:44:00,69.8,48.6,30.07,North,0,0.0,0.0,47,0.00,,,0.00,WUHU216HW,2013-05-27 00:44:00,
2013-05-26 17:49:00,69.5,48.3,30.07,North,0,0.0,0.0,47,0.00,,,0.00,WUHU216HW,2013-05-27 00:49:00,
2013-05-26 17:54:00,69.3,48.2,30.07,SW,225,6.3,6.3,47,0.00,,,0.00,WUHU216HW,2013-05-27 00:54:00,
2013-05-26 17:59:00,69.3,48.2,30.07,West,270,9.2,9.2,47,0.00,,,0.00,WUHU216HW,2013-05-27 00:59:00,
2013-05-26 18:04:00,69.1,48.0,30.06,WNW,293,12.1,12.1,47,0.00,,,0.00,WUHU216HW,2013-05-27 01:04:00,
2013-05-26 18:09:00,68.9,47.8,30.06,SW,225,5.6,12.1,47,0.00,,,0.00,WUHU216HW,2013-05-27 01:09:00,
2013-05-26 18:14:00,68.8,47.6,30.06,West,270,8.7,12.1,47,0.00,,,0.00,WUHU216HW,2013-05-27 01:14:00,
2013-05-26 18:19:00,68.6,48.1,30.06,SW,225,9.8,9.8,48,0.00,,,0.00,WUHU216HW,2013-05-27 01:19:00,
2013-05-26 18:24:00,68.4,47.9,30.06,WSW,248,7.6,9.8,48,0.00,,,0.00,WUHU216HW,2013-05-27 01:24:00,
2013-05-26 18:29:00,68.0,47.6,30.06,WSW,248,12.5,12.5,48,0.00,,,0.00,WUHU216HW,2013-05-27 01:29:00,
2013-05-26 18:34:00,68.0,47.6,30.06,WSW,248,12.5,12.5,48,0.00,,,0.00,WUHU216HW,2013-05-27 01:34:00,
2013-05-26 18:39:00,67.7,47.9,30.06,WSW,248,7.6,12.5,49,0.00,,,0.00,WUHU216HW,2013-05-27 01:39:00,
2013-05-26 18:44:00,67.3,47.5,30.06,WNW,293,6.9,9.2,49,0.00,,,0.00,WUHU216HW,2013-05-27 01:44:00,
2013-05-26 18:49:00,67.1,48.0,30.06,West,270,12.5,12.5,50,0.00,,,0.00,WUHU216HW,2013-05-27 01:49:00,
2013-05-26 18:54:00,67.0,47.8,30.06,WNW,293,10.5,12.5,50,0.00,,,0.00,WUHU216HW,2013-05-27 01:54:00,
2013-05-26 18:59:00,66.6,47.5,30.06,West,270,5.6,12.5,50,0.00,,,0.00,WUHU216HW,2013-05-27 01:59:00,
2013-05-26 19:04:00,66.4,47.8,30.07,SW,225,4.3,10.5,51,0.00,,,0.00,WUHU216HW,2013-05-27 02:04:00,
2013-05-26 19:09:00,66.2,47.6,30.06,West,270,7.2,9.6,51,0.00,,,0.00,WUHU216HW,2013-05-27 02:09:00,
2013-05-26 19:14:00,66.1,47.4,30.06,North,0,0.0,9.6,51,0.00,,,0.00,WUHU216HW,2013-05-27 02:14:00,
2013-05-26 19:19:00,65.9,47.3,30.07,WSW,248,4.9,7.2,51,0.00,,,0.00,WUHU216HW,2013-05-27 02:19:00,
2013-05-26 19:24:00,65.7,47.6,30.07,West,270,6.9,6.9,52,0.00,,,0.00,WUHU216HW,2013-05-27 02:24:00,
2013-05-26 19:29:00,65.7,47.6,30.07,WSW,248,5.1,6.9,52,0.00,,,0.00,WUHU216HW,2013-05-27 02:29:00,
2013-05-26 19:34:00,65.2,48.1,30.07,SW,225,3.6,6.9,54,0.00,,,0.00,WUHU216HW,2013-05-27 02:34:00,
2013-05-26 19:39:00,65.0,47.9,30.07,SSW,203,8.5,8.5,54,0.00,,,0.00,WUHU216HW,2013-05-27 02:39:00,
2013-05-26 19:44:00,64.8,48.2,30.07,SSW,203,6.3,9.4,55,0.00,,,0.00,WUHU216HW,2013-05-27 02:44:00,
2013-05-26 19:49:00,64.6,48.0,30.07,West,270,4.0,9.4,55,0.00,,,0.00,WUHU216HW,2013-05-27 02:49:00,
2013-05-26 19:54:00,63.5,48.0,30.07,WSW,248,7.4,9.8,57,0.00,,,0.00,WUHU216HW,2013-05-27 02:54:00,
2013-05-26 19:59:00,63.0,48.0,30.07,SSW,203,6.9,9.8,58,0.00,,,0.00,WUHU216HW,2013-05-27 02:59:00,
2013-05-26 20:04:00,62.3,48.2,30.07,WSW,248,10.3,10.3,60,0.00,,,0.00,WUHU216HW,2013-05-27 03:04:00,
2013-05-26 20:09:00,61.9,48.0,30.07,SW,225,4.0,10.3,60,0.00,,,0.00,WUHU216HW,2013-05-27 03:09:00,
2013-05-26 20:14:00,61.6,48.1,30.08,SW,225,11.0,11.0,61,0.00,,,0.00,WUHU216HW,2013-05-27 03:14:00,
2013-05-26 20:19:00,60.8,47.8,30.08,SW,225,4.7,11.0,62,0.00,,,0.00,WUHU216HW,2013-05-27 03:19:00,
2013-05-26 20:24:00,60.7,48.1,30.08,SW,225,5.6,7.6,63,0.00,,,0.00,WUHU216HW,2013-05-27 03:24:00,
2013-05-26 20:29:00,60.3,48.1,30.08,SSW,203,5.8,5.8,64,0.00,,,0.00,WUHU216HW,2013-05-27 03:29:00,
2013-05-26 20:34:00,59.9,48.2,30.08,SW,225,7.6,7.6,65,0.00,,,0.00,WUHU216HW,2013-05-27 03:34:00,
2013-05-26 20:39:00,59.8,48.0,30.08,SSW,203,5.1,7.6,65,0.00,,,0.00,WUHU216HW,2013-05-27 03:39:00,
2013-05-26 20:44:00,59.2,47.4,30.08,SW,225,4.7,7.6,65,0.00,,,0.00,WUHU216HW,2013-05-27 03:44:00,
2013-05-26 20:49:00,58.9,47.5,30.09,SW,225,6.3,6.3,66,0.00,,,0.00,WUHU216HW,2013-05-27 03:49:00,
2013-05-26 20:54:00,58.5,47.5,30.09,South,180,5.4,6.3,67,0.00,,,0.00,WUHU216HW,2013-05-27 03:54:00,
2013-05-26 20:59:00,58.1,47.6,30.09,SW,225,7.2,9.2,68,0.00,,,0.00,WUHU216HW,2013-05-27 03:59:00,
2013-05-26 21:01:00,58.1,47.6,30.09,SW,225,7.2,9.2,68,0.00,,,0.00,WUHU216HW,2013-05-27 04:01:00,
2013-05-26 21:06:00,57.8,47.7,30.09,WSW,248,6.0,9.2,69,0.00,,,0.00,WUHU216HW,2013-05-27 04:06:00,
2013-05-26 21:11:00,57.4,47.4,30.10,WSW,248,3.8,6.0,69,0.00,,,0.00,WUHU216HW,2013-05-27 04:11:00,
2013-05-26 21:16:00,57.2,47.2,30.10,WSW,248,5.4,6.0,69,0.00,,,0.00,WUHU216HW,2013-05-27 04:16:00,
2013-05-26 21:21:00,57.1,47.3,30.10,West,270,6.3,6.3,70,0.00,,,0.00,WUHU216HW,2013-05-27 04:21:00,
2013-05-26 21:26:00,56.9,47.5,30.11,SSW,203,2.5,6.3,71,0.00,,,0.00,WUHU216HW,2013-05-27 04:26:00,
2013-05-26 21:31:00,56.5,47.6,30.11,SSW,203,6.3,6.9,72,0.00,,,0.00,WUHU216HW,2013-05-27 04:31:00,
2013-05-26 21:36:00,56.3,47.4,30.11,West,270,2.5,6.9,72,0.00,,,0.00,WUHU216HW,2013-05-27 04:36:00,
2013-05-26 21:41:00,56.2,47.6,30.10,WSW,248,9.4,9.4,73,0.00,,,0.00,WUHU216HW,2013-05-27 04:41:00,
2013-05-26 21:46:00,55.8,47.3,30.10,West,270,4.5,9.4,73,0.00,,,0.00,WUHU216HW,2013-05-27 04:46:00,
2013-05-26 21:51:00,55.6,47.4,30.10,SW,225,5.6,9.4,74,0.00,,,0.00,WUHU216HW,2013-05-27 04:51:00,
2013-05-26 21:56:00,55.4,47.6,30.10,WSW,248,5.6,10.5,75,0.00,,,0.00,WUHU216HW,2013-05-27 04:56:00,
2013-05-26 22:01:00,55.3,47.4,30.11,West,270,7.8,10.5,75,0.00,,,0.00,WUHU216HW,2013-05-27 05:01:00,
2013-05-26 22:06:00,55.1,47.6,30.11,WSW,248,4.3,7.8,76,0.00,,,0.00,WUHU216HW,2013-05-27 05:06:00,
2013-05-26 22:11:00,55.1,47.3,30.11,SSE,158,1.8,7.8,75,0.00,,,0.00,WUHU216HW,2013-05-27 05:11:00,
2013-05-26 22:16:00,54.9,47.4,30.11,WSW,248,5.8,6.9,76,0.00,,,0.00,WUHU216HW,2013-05-27 05:16:00,
2013-05-26 22:21:00,54.9,47.4,30.11,SW,225,5.8,5.8,76,0.00,,,0.00,WUHU216HW,2013-05-27 05:21:00,
2013-05-26 22:26:00,54.7,47.3,30.11,SSW,203,6.3,10.5,76,0.00,,,0.00,WUHU216HW,2013-05-27 05:26:00,
2013-05-26 22:31:00,54.7,47.3,30.11,SW,225,3.8,10.5,76,0.00,,,0.00,WUHU216HW,2013-05-27 05:31:00,
2013-05-26 22:36:00,54.5,47.1,30.12,SE,135,4.5,6.3,76,0.00,,,0.00,WUHU216HW,2013-05-27 05:36:00,
2013-05-26 22:41:00,54.5,47.1,30.12,WSW,248,6.3,6.3,76,0.00,,,0.00,WUHU216HW,2013-05-27 05:41:00,
2013-05-26 22:46:00,54.4,47.3,30.12,SW,225,6.0,7.4,77,0.00,,,0.00,WUHU216HW,2013-05-27 05:46:00,
2013-05-26 22:51:00,54.4,47.3,30.11,SW,225,4.7,7.4,77,0.00,,,0.00,WUHU216HW,2013-05-27 05:51:00,
2013-05-26 22:56:00,54.4,47.0,30.12,SW,225,5.4,7.4,76,0.00,,,0.00,WUHU216HW,2013-05-27 05:56:00,
2013-05-26 23:01:00,54.2,46.8,30.12,SW,225,2.5,7.4,76,0.00,,,0.00,WUHU216HW,2013-05-27 06:01:00,
2013-05-26 23:06:00,54.0,46.6,30.12,SW,225,5.1,5.8,76,0.00,,,0.00,WUHU216HW,2013-05-27 06:06:00,
2013-05-26 23:11:00,54.0,46.6,30.12,SW,225,4.0,5.1,76,0.00,,,0.00,WUHU216HW,2013-05-27 06:11:00,
2013-05-26 23:16:00,54.0,47.0,30.12,SSW,203,3.6,5.1,77,0.00,,,0.00,WUHU216HW,2013-05-27 06:16:00,
2013-05-26 23:21:00,53.8,46.8,30.11,SW,225,6.7,7.6,77,0.00,,,0.00,WUHU216HW,2013-05-27 06:21:00,
2013-05-26 23:25:00,53.8,46.8,30.12,WSW,248,4.9,8.7,77,0.00,,,0.00,WUHU216HW,2013-05-27 06:25:00,
2013-05-26 23:30:00,53.8,46.8,30.12,WSW,248,3.8,8.7,77,0.00,,,0.00,WUHU216HW,2013-05-27 06:30:00,
2013-05-26 23:35:00,53.6,46.6,30.12,WSW,248,3.4,3.8,77,0.00,,,0.00,WUHU216HW,2013-05-27 06:35:00,
2013-05-26 23:40:00,53.6,47.0,30.12,WSW,248,3.6,4.7,78,0.00,,,0.00,WUHU216HW,2013-05-27 06:40:00,
2013-05-26 23:45:00,53.6,46.6,30.12,SW,225,4.0,5.4,77,0.00,,,0.00,WUHU216HW,2013-05-27 06:45:00,
2013-05-26 23:50:00,53.6,47.0,30.12,WSW,248,7.2,7.6,78,0.00,,,0.00,WUHU216HW,2013-05-27 06:50:00,
2013-05-26 23:55:00,53.6,47.0,30.12,SW,225,6.3,7.6,78,0.00,,,0.00,WUHU216HW,2013-05-27 06:55:00,